This is the latest recevied weather packets stored in our database for station/object KY4LEX. If no packets are shown the sender has not sent any weather packets the latest 1 day(s).
| Time | Temp. | Humidity | Pressure | Rain* | Wind** | Luminosity | Snow |
|---|---|---|---|---|---|---|---|
| 1777981834 | 15° C | 73% | 1016.6 hPa | 0 mm | 0 m/s | 56 W/m² | - |
| 1777981531 | 15° C | 75% | 1016.5 hPa | 0 mm | 0 m/s | 44 W/m² | - |
| 1777981227 | 15° C | 74% | 1016.5 hPa | 0 mm | 0 m/s | 35 W/m² | - |
| 1777980924 | 14.44° C | 74% | 1016.6 hPa | 0 mm | 0 m/s | 31 W/m² | - |
| 1777980620 | 14.44° C | 77% | 1016.6 hPa | 0 mm | 0.45 m/s, 321° | 29 W/m² | - |
| 1777980316 | 14.44° C | 76% | 1016.5 hPa | 0 mm | 0 m/s | 25 W/m² | - |
| 1777980015 | 13.89° C | 78% | 1016.5 hPa | 0 mm | 0.45 m/s, 7° | 27 W/m² | - |
| 1777979708 | 13.89° C | 78% | 1016.4 hPa | 0 mm | 0.45 m/s, 336° | 28 W/m² | - |
| 1777979404 | 13.89° C | 77% | 1016.4 hPa | 0 mm | 0 m/s | 23 W/m² | - |
| 1777979101 | 13.89° C | 78% | 1016.6 hPa | 0 mm | 0 m/s | 19 W/m² | - |
| 1777978798 | 13.89° C | 78% | 1016.2 hPa | 0 mm | 0 m/s | 14 W/m² | - |
| 1777978495 | 13.89° C | 78% | 1016.3 hPa | 0 mm | 0 m/s | 9 W/m² | - |
| 1777978190 | 13.89° C | 78% | 1016.3 hPa | 0 mm | 0 m/s | 7 W/m² | - |
| 1777977888 | 13.89° C | 78% | 1016.2 hPa | 0 mm | 0 m/s | 5 W/m² | - |
| 1777977584 | 13.89° C | 78% | 1016.2 hPa | 0 mm | 0 m/s | 3 W/m² | - |
| 1777977282 | 13.89° C | 77% | 1015.9 hPa | 0 mm | 0 m/s | 1 W/m² | - |
| 1777976979 | 13.89° C | 77% | 1015.8 hPa | 0 mm | 0 m/s | 1 W/m² | - |
| 1777976676 | 13.89° C | 76% | 1015.7 hPa | 0 mm | 0 m/s | 0 W/m² | - |
| 1777976373 | 13.89° C | 77% | 1015.7 hPa | 0 mm | 0 m/s | 0 W/m² | - |
| 1777976072 | 13.89° C | 76% | 1015.7 hPa | 0 mm | 0 m/s | 0 W/m² | - |
| 1777975768 | 13.89° C | 75% | 1015.7 hPa | 0 mm | 0 m/s | 0 W/m² | - |
| 1777975465 | 14.44° C | 74% | 1015.6 hPa | 0 mm | 0 m/s | 0 W/m² | - |
| 1777975161 | 14.44° C | 72% | 1015.5 hPa | 0 mm | 0 m/s | 0 W/m² | - |
| 1777974858 | 15° C | 71% | 1015.5 hPa | 0 mm | 0 m/s | 0 W/m² | - |
| 1777974554 | 15° C | 70% | 1015.4 hPa | 0 mm | 0 m/s | 0 W/m² | - |
* Rain latest hour (hover to see other rain measurements)
** Current wind speed in m/s (hover to see current wind gust speed)